Printer-friendly version

IAU Minor Planet Center

Minor Planet Center

MPEC 2006-M19 : 2006 MY1

The following Minor Planet Electronic Circular may be linked-to from your own Web pages, but must not otherwise be redistributed electronically.


Read MPEC 2006-M18 Read MPEC 2006-M20


M.P.E.C. 2006-M19                                Issued 2006 June 21, 13:42 UT

     The Minor Planet Electronic Circulars contain information on unusual
         minor planets and routine data on comets.  They are published
   on behalf of Commission 20 of the International Astronomical Union by the
          Minor Planet Center, Smithsonian Astrophysical Observatory,
                          Cambridge, MA 02138, U.S.A.

                  Supported in part by the Brinson Foundation
                  Supported in part by the TABASGO Foundation
             Prepared using the Tamkin Foundation Computer Network

                              MPC@CFA.HARVARD.EDU
          URL http://cfa-www.harvard.edu/iau/mpc.html  ISSN 1523-6714

                                   2006 MY1

Observations:
     K06M01Y* C2006 06 20.29977 15 08 30.48 -02 49 17.9          20.7 V EM019G96
     K06M01Y  C2006 06 20.30429 15 08 31.56 -02 49 22.1          20.9 V EM019G96
     K06M01Y  C2006 06 20.30882 15 08 32.60 -02 49 27.1          20.4 V EM019G96
     K06M01Y  C2006 06 20.31330 15 08 33.61 -02 49 31.2          20.4 V EM019G96
     K06M01Y  C2006 06 20.32017 15 08 35.20 -02 49 37.9          20.5 V EM019G96
     K06M01Y  C2006 06 20.32425 15 08 36.09 -02 49 42.7                 EM019G96
     K06M01Y  C2006 06 20.32831 15 08 37.07 -02 49 45.6          20.8 V EM019G96
     K06M01Y  C2006 06 20.33240 15 08 38.01 -02 49 49.4          20.6 V EM019G96
     K06M01Y FC2006 06 20.92738 15 11 01.42 -02 59 49.5          19.5 R EM019461
     K06M01Y FC2006 06 20.93223 15 11 02.52 -02 59 54.7                 EM019461
     K06M01Y  C2006 06 20.93707 15 11 03.60 -02 59 59.2                 EM019461
     K06M01Y  C2006 06 21.18278 15 12 03.67 -03 03 56.8          20.5 R EM019651
     K06M01Y  C2006 06 21.18715 15 12 04.62 -03 04 01.6          20.4 R EM019651
     K06M01Y  C2006 06 21.19153 15 12 05.58 -03 04 05.9          20.4 R EM019651
     K06M01Y  C2006 06 21.20317 15 12 08.23 -03 04 17.5                 EM019291
     K06M01Y  C2006 06 21.20693 15 12 09.07 -03 04 20.9                 EM019291
     K06M01Y 5C2006 06 21.20787 15 12 09.61 -03 04 24.5          20.8 R EM019673
     K06M01Y  C2006 06 21.21072 15 12 09.95 -03 04 25.0                 EM019291
     K06M01Y 5C2006 06 21.21597 15 12 11.40 -03 04 32.3                 EM019673
     K06M01Y 5C2006 06 21.21968 15 12 12.23 -03 04 35.8                 EM019673
     K06M01Y 5C2006 06 21.22604 15 12 13.63 -03 04 41.7                 EM019673

Observer details:
291 LPL/Spacewatch II.  Observer R. S. McMillan.  1.8-m f/2.7 reflector + CCD.
461 Szeged University, Piszkesteto Stn. (Konkoly).  Observer K. Sarneczky.
    0.60-m Schmidt + CCD.
651 Grasslands Observatory, Tucson.  Observer J. E. McGaha.  0.62-m f/5.1
    reflector + CCD.
673 Table Mountain Observatory, Wrightwood.  Observer J. Young.  0.61-m f/16
    Cassegrain + CCD.
G96 Mt. Lemmon Survey.  Observer R. A. Kowalski.  Measurers E. C. Beshore,
    E. J. Christensen, G. J. Garradd, A. R. Gibbs, A. D. Grauer, R. E. Hill,
    R. A. Kowalski, S. M. Larson, R. H. McNaught.  1.5-m reflector + CCD.

Orbital elements:
2006 MY1                                                 Earth MOID = 0.1401 AU
Epoch 2006 Mar. 6.0 TT = JDT 2453800.5                  MPC
M 330.98888              (2000.0)            P               Q
n   0.36385117     Peri.   31.00521     -0.54583623     +0.83754905
a   1.9432121      Node   205.93611     -0.77954252     -0.51810465
e   0.4092538      Incl.    3.14124     -0.30720722     -0.17343347
P   2.71           H   22.1           G   0.15           U   9
Residuals in seconds of arc
060620 G96  0.4-  0.1-    060620 G96  0.0   0.5+    060621 291  0.3-  0.0
060620 G96  0.3+  0.2+    060620 461  0.4+  0.5+    060621 291  0.4-  0.4+
060620 G96  0.3+  0.4-    060620 461  0.2+  0.1+    060621 673  1.0+  0.9-
060620 G96  0.0   0.1-    060620 461  0.3-  0.4+    060621 291  0.1+  0.0
060620 G96  0.2+  0.0     060621 651  0.6+  0.2+    060621 673  0.5+  0.6-
060620 G96  0.6-  0.8-    060621 651  0.1+  0.3-    060621 673  0.4+  0.4-
060620 G96  0.1+  0.3+    060621 651  0.2-  0.2-    060621 673  0.0   0.0

Ephemeris:
2006 MY1                 a,e,i = 1.94, 0.41, 3                   q = 1.1479
Date    TT    R. A. (2000) Decl.     Delta      r     Elong.  Phase     V
2006 06 14    14 42.87   -01 09.0    0.203    1.167   134.2    38.6    20.5
2006 06 24    15 23.16   -03 51.0    0.227    1.189   135.3    37.0    20.8
2006 07 04    16 00.43   -06 40.8    0.262    1.218   135.8    35.6    21.1
2006 07 14    16 33.98   -09 19.1    0.308    1.255   135.5    34.6    21.5
2006 07 24    17 03.96   -11 36.3    0.365    1.296   134.0    34.3    21.9

Timothy B. Spahr             (C) Copyright 2006 MPC           M.P.E.C. 2006-M19

Read MPEC 2006-M18 Read MPEC 2006-M20


Our Web policy. Index to the CBAT/MPC/ICQ pages.


Valid HTML 4.01!